Tallevast, FL

4:08 PM EST on February 25, 2017 (GMT -0500)
Sarasota-bradenton

Weather History for KSRQ - July, 2013

Change the Weather History Date:

Sunday, July 21, 2013

  Actual Average Record
Temperature  
Mean Temperature 82 °F 82 °F  
Max Temperature 89 °F 90 °F 98 °F (1918)
Min Temperature 74 °F 75 °F 65 °F (1948)
Degree Days  
Heating Degree Days 0 0  
Month to date heating degree days 0 0  
Since 1 June heating degree days 0 0  
Since 1 July heating degree days 0 0  
Cooling Degree Days 17 18  
Month to date cooling degree days 352 362  
Year to date cooling degree days 1733 1585  
Since 1 June cooling degree days 865 834  
Growing Degree Days 31 (Base 50)    
Moisture  
Dew Point 75 °F    
Average Humidity 79    
Maximum Humidity 100    
Minimum Humidity 64    
Precipitation  
Precipitation 0.00 in 0.24 in 4.00 in (1919)
Month to date precipitation 9.85 5.39  
Year to date precipitation 26.73 26.60  
Sea Level Pressure  
Sea Level Pressure 30.08 in    
Wind  
Wind Speed 6 mph (SSW)    
Max Wind Speed 15 mph    
Max Gust Speed 17 mph    
Visibility 10 miles    
Events      
T = Trace of Precipitation, MM = Missing Value Source: NWS Daily Summary

Daily Weather History Graph

Daily Weather History Graph

Search for Another Location

Airport or City:

Trip Planner

Search our weather history database for the weather conditions in past years. The results will help you decide how hot, cold, wet, or windy it might be!

Date:

Astronomy

Jul. 21, 2013 Rise Set
Actual Time 6:48 AM EDT 8:24 PM EDT
Civil Twilight 6:22 AM EDT 8:50 PM EDT
Nautical Twilight 5:51 AM EDT 9:21 PM EDT
Astronomical Twilight 5:19 AM EDT 9:53 PM EDT
Moon 7:25 PM EDT (7/21) 5:30 AM EDT (7/21)
Length of Visible Light 14h 28m
Length of Day
13h 36m
Waxing Gibbous, 98% of the Moon is Illuminated
Jul 21
Waxing Gibbous
Jul 22
Full
Jul 29
Last Quarter
Aug 6
New
Aug 14
First Quarter

Hourly Weather History & Observations

Time (EDT) Temp. Heat Index Dew Point Humidity Pressure Visibility Wind Dir Wind Speed Gust Speed Precip Events Conditions
12:53 AM 75.9 °F - 73.0 °F 91% 30.08 in 10.0 mi ESE 3.5 mph - N/A   Clear
1:53 AM 75.0 °F - 73.0 °F 94% 30.06 in 10.0 mi ESE 3.5 mph - N/A   Clear
2:53 AM 75.0 °F - 73.0 °F 94% 30.06 in 10.0 mi Calm Calm - N/A   Clear
3:53 AM 75.0 °F - 73.0 °F 94% 30.06 in 10.0 mi Calm Calm - N/A   Clear
4:53 AM 75.0 °F - 73.0 °F 94% 30.05 in 10.0 mi Calm Calm - N/A   Clear
5:53 AM 75.0 °F - 73.0 °F 94% 30.05 in 10.0 mi ESE 4.6 mph - N/A   Clear
6:53 AM 73.9 °F - 73.0 °F 97% 30.06 in 10.0 mi East 4.6 mph - N/A   Clear
7:53 AM 75.9 °F - 73.9 °F 94% 30.08 in 10.0 mi ESE 3.5 mph - N/A   Clear
8:53 AM 82.0 °F 88.6 °F 75.0 °F 79% 30.11 in 10.0 mi SE 6.9 mph - N/A   Clear
9:53 AM 84.0 °F 92.6 °F 75.9 °F 76% 30.11 in 10.0 mi Calm Calm - N/A   Partly Cloudy
10:53 AM 84.9 °F 94.1 °F 75.9 °F 74% 30.12 in 10.0 mi South 5.8 mph - N/A   Clear
11:53 AM 87.1 °F 97.3 °F 75.9 °F 69% 30.12 in 10.0 mi SW 9.2 mph - N/A   Partly Cloudy
12:53 PM 88.0 °F 98.5 °F 75.9 °F 67% 30.12 in 10.0 mi SW 10.4 mph - N/A   Clear
1:53 PM 88.0 °F 101.3 °F 78.1 °F 72% 30.09 in 6.0 mi SSW 8.1 mph - N/A   Haze
2:53 PM 89.1 °F 100.2 °F 75.9 °F 65% 30.07 in 10.0 mi SW 11.5 mph - N/A   Scattered Clouds
3:53 PM 88.0 °F 97.5 °F 75.0 °F 65% 30.06 in 10.0 mi SW 10.4 mph - N/A   Partly Cloudy
4:53 PM 88.0 °F 97.5 °F 75.0 °F 65% 30.05 in 10.0 mi SW 11.5 mph - N/A   Partly Cloudy
5:53 PM 88.0 °F 97.5 °F 75.0 °F 65% 30.05 in 10.0 mi WSW 11.5 mph - N/A   Clear
6:53 PM 87.1 °F 96.3 °F 75.0 °F 67% 30.05 in 10.0 mi SW 8.1 mph - N/A   Clear
7:53 PM 84.9 °F 93.3 °F 75.0 °F 72% 30.07 in 10.0 mi WSW 8.1 mph - N/A   Clear
8:53 PM 84.0 °F 91.9 °F 75.0 °F 74% 30.11 in 10.0 mi SW 5.8 mph - N/A   Clear
9:53 PM 84.0 °F 92.6 °F 75.9 °F 76% 30.12 in 10.0 mi WSW 5.8 mph - N/A   Clear
10:53 PM 82.9 °F 90.8 °F 75.9 °F 79% 30.12 in 10.0 mi WSW 4.6 mph - N/A   Clear
11:53 PM 82.9 °F 90.8 °F 75.9 °F 79% 30.12 in 10.0 mi WSW 3.5 mph - N/A   Clear